Location: Middle Street
(51.7167°N, 0.0333°E)
Time: 02:02:38
(UTC+00:00)

CZ-4C R/B - Pass Details

Date: 20 January 2021
Orbit: 617 x 1384 km, 63.4° (Epoch: 24 February)

Event Time Altitude Azimuth Distance (km) Brightness Sun altitude
Rises 20:45:54 0° 298° (WNW) 3,452 6.3 -39.2°
Reaches altitude 10° 20:48:32 10° 309° (NW) 2,629 5.4 -39.6°
Enters shadow 20:51:40 25° 335° (NNW) 1,897 4.3 -40.0°
